Location: Cosy Dell
(34.2789°N, 117.4537°W)
Time: 20:27:55
(UTC+00:00)

Cosmos 2344 - Pass Details

Date: 14 July 2020
Orbit: 1249 x 2994 km, 63.3° (Epoch: 13 August)

Event Time Altitude Azimuth Distance (km) Brightness Sun altitude
Rises 05:25:33 0° 221° (SW) 4,417 6.3 -23.7°
Reaches altitude 10° 05:28:32 10° 225° (SW) 3,335 5.7 -24.1°
Maximum altitude 05:36:04 60° 305° (NW) 1,412 4.0 -25.0°
Drops below altitude 10° 05:43:39 10° 25° (NNE) 3,355 6.1 -25.9°
Sets 05:46:41 0° 29° (NNE) 4,446 6.8 -26.2°
